Weather History for CWXA - January, 2013

Change the Weather History Date:

Wednesday, January 16, 2013

  Actual Average Record
Temperature  
Mean Temperature 38 °F -  
Max Temperature 44 °F - - ()
Min Temperature 31 °F - - ()
Degree Days  
Heating Degree Days 28    
Moisture  
Dew Point 16 °F    
Average Humidity 34    
Maximum Humidity 44    
Minimum Humidity 18    
Precipitation  
Precipitation 0.00 in - - ()
Sea Level Pressure  
Sea Level Pressure 30.09 in    
Wind  
Wind Speed 10 mph ()    
Max Wind Speed 15 mph    
Max Gust Speed 26 mph    
T = Trace of Precipitation, MM = Missing Value Source: Averaged Metar Reports

Daily Weather History Graph

Daily Weather History Graph

Search for Another Location

Airport or City:

Trip Planner

Search our weather history database for the weather conditions in past years. The results will help you decide how hot, cold, wet, or windy it might be!

Date:

Astronomy

Jan. 16, 2013 Rise Set
Actual Time 8:36 AM MST 5:04 PM MST
Civil Twilight 7:58 AM MST 5:42 PM MST
Nautical Twilight 7:17 AM MST 6:23 PM MST
Astronomical Twilight 6:37 AM MST 7:03 PM MST
Moon 10:31 AM MST (1/16) 11:47 PM MST (1/16)
Length of Visible Light 9h 44m
Length of Day
8h 28m
Waxing Crescent, 29% of the Moon is Illuminated
Jan 16
Waxing Crescent
Jan 18
First Quarter
Jan 26
Full
Feb 3
Last Quarter
Feb 10
New

Hourly Weather History & Observations

Time (MST) Temp. Windchill Dew Point Humidity Pressure Visibility Wind Dir Wind Speed Gust Speed Precip Events Conditions
12:00 AM 43.7 °F 38.1 °F 10.8 °F 26% 29.95 in - West 10.4 mph 21.9 mph N/A   Unknown
1:00 AM 43.2 °F 37.0 °F 10.8 °F 27% 29.96 in - WSW 11.5 mph 26.5 mph N/A   Unknown
2:00 AM 43.0 °F 36.8 °F 11.7 °F 28% 29.96 in - WSW 11.5 mph 23.0 mph N/A   Unknown
3:00 AM 42.8 °F 37.0 °F 11.8 °F 28% 30.00 in - WSW 10.4 mph 20.7 mph N/A   Unknown
4:00 AM 41.9 °F 35.4 °F 12.2 °F 30% 30.01 in - WSW 11.5 mph 20.7 mph N/A   Unknown
5:00 AM 43 °F - 14 °F 18% 30.01 in - WSW 9.2 mph - -  
5:00 AM 43.0 °F 37.7 °F 13.6 °F 30% 30.01 in - WSW 9.2 mph 19.6 mph N/A   Unknown
6:00 AM 42.3 °F 35.9 °F 14.7 °F 33% 30.04 in - WSW 11.5 mph 25.3 mph N/A   Unknown
7:00 AM 42.1 °F 34.5 °F 15.3 °F 34% 30.05 in - WSW 15.0 mph 26.5 mph N/A   Unknown
8:00 AM 41.7 °F 35.2 °F 15.6 °F 35% 30.07 in - WSW 11.5 mph 21.9 mph N/A   Unknown
9:00 AM 40.6 °F 33.8 °F 16.5 °F 38% 30.09 in - WSW 11.5 mph 19.6 mph N/A   Unknown
10:00 AM 41.7 °F 34.8 °F 16.9 °F 37% 30.10 in - WSW 12.7 mph 23.0 mph N/A   Unknown
11:00 AM 43 °F - 17 °F 22% 30.09 in - WSW 11.5 mph - -  
11:00 AM 42.6 °F 36.3 °F 16.9 °F 35% 30.09 in - WSW 11.5 mph 20.7 mph N/A   Unknown
12:00 PM 43.0 °F 36.0 °F 16.7 °F 35% 30.08 in - West 13.8 mph 26.5 mph N/A   Unknown
1:00 PM 43.9 °F 37.9 °F 16.3 °F 33% 30.08 in - West 11.5 mph 19.6 mph N/A   Unknown
2:00 PM 43.5 °F 37.1 °F 16.7 °F 34% 30.08 in - West 12.7 mph 23.0 mph N/A   Unknown
3:00 PM 43.2 °F 36.6 °F 16.2 °F 34% 30.11 in - West 12.7 mph 23.0 mph N/A   Unknown
4:00 PM 42.3 °F 36.8 °F 17.2 °F 37% 30.14 in - WSW 9.2 mph 18.4 mph N/A   Unknown
5:00 PM 42 °F - 17 °F 23% 30.17 in - WSW 11.5 mph - -  
5:00 PM 41.5 °F 35.0 °F 16.7 °F 37% 30.17 in - WSW 11.5 mph 24.2 mph N/A   Unknown
6:00 PM 40.3 °F 33.9 °F 17.8 °F 40% 30.17 in - WSW 10.4 mph 18.4 mph N/A   Unknown
7:00 PM 39.2 °F 33.6 °F 18.1 °F 43% 30.19 in - WSW 8.1 mph - N/A   Unknown
8:00 PM 38.8 °F 35.4 °F 18.5 °F 44% 30.20 in - WSW 4.6 mph - N/A   Unknown
9:00 PM 39.2 °F 33.6 °F 18.9 °F 44% 30.19 in - West 8.1 mph 19.6 mph N/A   Unknown
10:00 PM 39.2 °F 33.0 °F 18.1 °F 43% 30.17 in - WSW 9.2 mph 18.4 mph N/A   Unknown
11:00 PM 39.4 °F 31.4 °F 18.1 °F 42% 30.17 in - WSW 13.8 mph 21.9 mph N/A   Unknown